TimeEEST,TemperatureF,Dew PointF,Humidity,Sea Level PressureIn,VisibilityMPH,Wind Direction,Wind SpeedMPH,Gust SpeedMPH,PrecipitationIn,Events,Conditions,WindDirDegrees,DateUTC
12:20 AM,64.4,59.0,83,29.98,6.2,Calm,Calm,-,N/A,,Scattered Clouds,0,2012-10-13 21:20:00
12:50 AM,62.6,57.2,82,29.95,6.2,WNW,3.5,-,N/A,,Scattered Clouds,290,2012-10-13 21:50:00
1:20 AM,64.4,57.2,77,29.95,6.2,Calm,Calm,-,N/A,,Partly Cloudy,0,2012-10-13 22:20:00
1:50 AM,62.6,57.2,82,29.95,6.2,NW,2.3,-,N/A,,Scattered Clouds,310,2012-10-13 22:50:00
2:20 AM,64.4,57.2,77,29.95,6.2,Variable,1.2,-,N/A,,Scattered Clouds,0,2012-10-13 23:20:00
2:50 AM,60.8,55.4,82,29.95,6.2,WNW,3.5,-,N/A,,Scattered Clouds,300,2012-10-13 23:50:00
3:20 AM,62.6,57.2,82,29.95,6.2,WNW,1.2,-,N/A,,Scattered Clouds,290,2012-10-14 00:20:00
3:50 AM,60.8,53.6,77,29.95,6.2,West,3.5,-,N/A,,Partly Cloudy,270,2012-10-14 00:50:00
4:20 AM,62.6,55.4,77,29.95,6.2,Calm,Calm,-,N/A,,Scattered Clouds,0,2012-10-14 01:20:00
5:20 AM,62.6,55.4,77,29.95,6.2,Variable,3.5,-,N/A,,Scattered Clouds,0,2012-10-14 02:20:00
5:50 AM,66.2,55.4,68,29.95,6.2,Calm,Calm,-,N/A,,Scattered Clouds,0,2012-10-14 02:50:00
6:20 AM,66.2,55.4,68,29.92,6.2,Variable,2.3,-,N/A,,Mostly Cloudy,0,2012-10-14 03:20:00
6:50 AM,68.0,57.2,68,29.95,6.2,Variable,3.5,-,N/A,,Mostly Cloudy,0,2012-10-14 03:50:00
7:20 AM,68.0,57.2,68,29.95,6.2,Variable,2.3,-,N/A,,Mostly Cloudy,0,2012-10-14 04:20:00
7:50 AM,68.0,57.2,68,29.95,6.2,Variable,1.2,-,N/A,,Mostly Cloudy,0,2012-10-14 04:50:00
8:20 AM,68.0,57.2,68,29.95,6.2,Calm,Calm,-,N/A,,Mostly Cloudy,0,2012-10-14 05:20:00
8:50 AM,69.8,59.0,68,29.95,6.2,North,2.3,-,N/A,,Mostly Cloudy,10,2012-10-14 05:50:00
9:20 AM,71.6,60.8,69,29.95,6.2,Calm,Calm,-,N/A,,Mostly Cloudy,0,2012-10-14 06:20:00
9:50 AM,71.6,60.8,69,29.95,6.2,North,3.5,-,N/A,,Mostly Cloudy,350,2012-10-14 06:50:00
10:20 AM,73.4,60.8,65,29.98,6.2,Variable,2.3,-,N/A,,Mostly Cloudy,0,2012-10-14 07:20:00
10:50 AM,75.2,62.6,65,29.98,-9999.0,SSW,8.1,-,N/A,,Clear,210,2012-10-14 07:50:00
11:20 AM,77.0,60.8,57,29.98,-9999.0,SSW,8.1,-,N/A,,Clear,200,2012-10-14 08:20:00
11:50 AM,78.8,59.0,51,29.95,-9999.0,SSW,8.1,-,N/A,,Clear,200,2012-10-14 08:50:00
12:20 PM,80.6,57.2,45,29.95,-9999.0,SSW,8.1,-,N/A,,Clear,210,2012-10-14 09:20:00
12:50 PM,80.6,57.2,45,29.95,6.2,SSW,11.5,-,N/A,,Partly Cloudy,210,2012-10-14 09:50:00
1:20 PM,80.6,60.8,51,29.95,6.2,SSW,13.8,-,N/A,,Partly Cloudy,210,2012-10-14 10:20:00
1:50 PM,80.6,62.6,54,29.92,6.2,SSW,15.0,-,N/A,,Scattered Clouds,200,2012-10-14 10:50:00
2:20 PM,80.6,62.6,54,29.92,6.2,SSW,16.1,-,N/A,,Scattered Clouds,210,2012-10-14 11:20:00
2:50 PM,80.6,62.6,54,29.92,6.2,South,17.3,-,N/A,,Scattered Clouds,190,2012-10-14 11:50:00
3:20 PM,78.8,62.6,57,29.92,6.2,SSW,17.3,-,N/A,,Scattered Clouds,200,2012-10-14 12:20:00
3:50 PM,78.8,62.6,57,29.92,6.2,SSW,17.3,-,N/A,,Scattered Clouds,200,2012-10-14 12:50:00
4:20 PM,78.8,62.6,57,29.92,6.2,SSW,15.0,-,N/A,,Scattered Clouds,200,2012-10-14 13:20:00
4:50 PM,78.8,62.6,57,29.92,6.2,South,15.0,-,N/A,,Scattered Clouds,190,2012-10-14 13:50:00
5:20 PM,78.8,64.4,61,29.92,6.2,South,15.0,-,N/A,,Scattered Clouds,190,2012-10-14 14:20:00
5:50 PM,77.0,64.4,65,29.92,6.2,SSW,15.0,-,N/A,,Mostly Cloudy,210,2012-10-14 14:50:00
6:20 PM,75.2,64.4,69,29.92,6.2,SSW,15.0,-,N/A,,Mostly Cloudy,200,2012-10-14 15:20:00
6:50 PM,75.2,64.4,69,29.92,6.2,SSW,15.0,-,N/A,,Mostly Cloudy,200,2012-10-14 15:50:00
7:20 PM,73.4,64.4,73,29.92,6.2,SSW,13.8,-,N/A,,Mostly Cloudy,200,2012-10-14 16:20:00
7:50 PM,75.2,66.2,73,29.95,6.2,SSW,16.1,-,N/A,,Mostly Cloudy,200,2012-10-14 16:50:00
8:20 PM,75.2,66.2,73,29.95,6.2,SSW,16.1,-,N/A,,Mostly Cloudy,200,2012-10-14 17:20:00
8:50 PM,73.4,57.2,57,29.95,6.2,West,15.0,-,N/A,,Mostly Cloudy,280,2012-10-14 17:50:00
9:20 PM,73.4,55.4,53,29.98,6.2,West,9.2,-,N/A,,Mostly Cloudy,280,2012-10-14 18:20:00
9:50 PM,71.6,53.6,53,29.98,6.2,South,3.5,-,N/A,,Mostly Cloudy,180,2012-10-14 18:50:00
10:20 PM,73.4,55.4,53,29.98,6.2,SW,11.5,25.3,N/A,,Mostly Cloudy,230,2012-10-14 19:20:00
10:50 PM,68.0,59.0,73,29.98,6.2,SSW,10.4,-,N/A,Rain,Light Rain,210,2012-10-14 19:50:00
11:20 PM,68.0,59.0,73,29.98,6.2,South,10.4,-,N/A,,Mostly Cloudy,190,2012-10-14 20:20:00
11:50 PM,68.0,59.0,73,29.92,6.2,SSW,4.6,-,N/A,,Mostly Cloudy,200,2012-10-14 20:50:00